Flag for Germany Weather past 2 weeks in Gera, Thuringia, Germany

Now
37 °F

Passing clouds.


Feels Like: 31 °F
Forecast: 26 / 37 °F
Wind: 8 mph from West

Location: Gera-Leumnitz

Current Time: Dec 25, 2014 at 8:21:09 PM

Latest Report: Dec 25, 2014 at 8:00 PM


Visibility: 28 mi

Pressure: 30.17 "Hg

Humidity: 78%

Dew point: 31 °F

Location of GeraLocation

Historic Weather in Gera — Graph

°F

Gera temperature yesterday

Maximum temperature yesterday: 47 °F (at 12:00 AM)
Minimum temperature yesterday: 42 °F (at 10:00 AM)
Average temperature yesterday: 44 °F

Past Weeks' High & Low Weather Summary

 TemperatureHumidityPressure
High54 °F (Dec 19, 12:00 AM)100% (Dec 14, 10:00 PM)30.38 "Hg (Dec 14, 10:00 PM)
Low33 °F (Dec 17, 7:00 AM)63% (Dec 15, 2:00 PM)29.54 "Hg (Dec 12, 8:00 PM)
Average42 °F82%29.96 "Hg
* Reported Dec 10 7:00 PM — Dec 25 7:00 PM, Gera, Weather by CustomWeather, © 2014

Note: Actual official high and low records may vary slightly from our data, if they occured in-between our weather recording intervals... More about our weather records

Advertising

Gera weather history for previous 24 hours

 ConditionsComfort  
Time TempWeatherWind HumidityBarometerVisibility
7:00 PM
Dec 25
38 °FLight rain. Low clouds.8 mph79%30.16 "Hg13 mi
6:00 PM38 °FLow clouds.9 mph76%30.14 "Hg34 mi
5:00 PM40 °FLight rain. Low clouds.9 mph72%30.12 "Hg47 mi
4:00 PM41 °FOvercast.9 mph66%30.11 "Hg40 mi
3:00 PM41 °FOvercast.10 mph65%30.10 "Hg37 mi
2:00 PM41 °FPartly sunny.10 mph66%30.10 "Hg47 mi
1:00 PM41 °FScattered clouds.12 mph66%30.10 "Hg28 mi
12:00 PM40 °FScattered clouds.10 mph69%30.12 "Hg25 mi
11:00 AM39 °FOvercast.9 mph71%30.13 "Hg47 mi
10:00 AM38 °FPartly sunny.8 mph73%30.13 "Hg47 mi
9:00 AM37 °FOvercast.9 mph75%30.13 "Hg47 mi
8:00 AM37 °FOvercast.8 mph77%30.12 "Hg47 mi
7:00 AM36 °FPassing clouds.6 mph80%30.12 "Hg47 mi
6:00 AM36 °FOvercast.5 mph82%30.11 "Hg47 mi
5:00 AM37 °FOvercast.6 mph79%30.10 "Hg43 mi
4:00 AM37 °FOvercast.6 mph80%30.09 "Hg37 mi
3:00 AM39 °FOvercast.9 mph77%30.09 "Hg43 mi
2:00 AM40 °FPassing clouds.6 mph86%30.07 "Hg34 mi
1:00 AM40 °FPassing clouds.5 mph93%30.05 "Hg43 mi
12:00 AM41 °FLight rain. Low clouds.7 mph92%30.03 "Hg14 mi
11:00 PM
Dec 24
43 °FLight rain. Low clouds.7 mph93%30.00 "Hg4 mi
10:00 PM46 °FPassing clouds.9 mph81%29.98 "Hg31 mi
9:00 PM46 °FOvercast.8 mph80%29.97 "Hg43 mi
8:00 PM45 °FOvercast.9 mph82%29.97 "Hg43 mi
Weather by CustomWeather, © 2014

See weather overviewHow to use our weather pages